period_start,C,m1,H,J0,J1,J2,J3,J4,J5,JA,JB,JC,JD,JJ,JK,JN,#
2018-03-13 00:03:16,0.03,2.30,0.00,14.68,17.91,21.31,14.46,46.07,1022.36,2061.00,2616.06,2555.99,2935.21,600.30,617.00,11.36,0000 0000 0000 0000 000000
2018-03-13 00:08:17,0.03,2.30,0.00,14.69,17.89,21.34,14.43,46.06,1022.26,2061.01,2615.71,2555.65,2934.97,599.98,616.62,11.41,0000 0000 0000 0000 000000
2018-03-13 00:13:19,0.04,2.30,0.00,14.69,17.89,21.34,14.38,46.08,1022.13,2061.01,2615.00,2555.05,2934.23,599.70,616.18,11.46,0000 0000 0000 0000 000000
2018-03-13 00:18:20,0.02,2.30,0.00,14.72,17.89,21.31,14.46,46.08,1022.12,2061.02,2614.16,2554.90,2933.98,600.35,616.91,11.51,0000 0000 0000 0000 000000
2018-03-13 00:23:21,0.06,2.31,0.00,14.73,17.89,21.29,14.43,46.02,1022.08,2061.04,2613.55,2554.12,2933.29,599.94,616.49,11.56,0000 0000 0000 0000 000000
2018-03-13 00:28:23,0.01,2.31,0.00,14.74,17.89,21.29,14.43,46.13,1022.05,2061.06,2612.95,2553.97,2933.00,599.93,616.40,11.61,0000 0000 0000 0000 000000
2018-03-13 00:33:24,0.06,2.31,0.00,14.76,17.89,21.29,14.44,46.01,1022.03,2061.04,2612.13,2553.30,2932.29,599.94,616.35,11.66,0000 0000 0000 0000 000000
2018-03-13 00:38:25,0.02,2.31,0.00,14.78,17.89,21.27,14.43,45.95,1022.00,2061.05,2611.69,2553.01,2931.99,600.48,616.88,11.71,0000 0000 0000 0000 000000
2018-03-13 00:43:27,0.04,2.31,0.00,14.79,17.89,21.30,14.38,45.92,1022.01,2061.07,2611.01,2552.78,2931.40,600.03,616.31,11.76,0000 0000 0000 0000 000000
2018-03-13 00:48:28,0.06,2.32,0.00,14.82,17.89,21.27,14.40,45.95,1022.02,2061.09,2610.17,2551.93,2930.68,599.91,616.15,11.81,0000 0000 0000 0000 000000
2018-03-13 00:53:29,0.21,2.32,0.00,14.83,17.91,21.28,14.42,46.05,1022.00,2061.12,2607.58,2550.08,2928.56,600.33,616.36,11.86,0000 0000 0000 0000 000000
2018-03-13 00:58:31,0.19,2.33,0.00,14.84,17.92,21.30,14.42,46.06,1022.00,2061.11,2604.50,2547.69,2925.89,600.01,616.17,11.91,0000 0000 0000 0000 000000
2018-03-13 01:03:32,0.24,2.35,0.00,14.87,17.92,21.28,14.46,45.98,1022.01,2061.08,2601.15,2545.04,2922.96,600.22,616.35,11.96,0000 0000 0000 0000 000000
2018-03-13 01:08:33,0.31,2.36,0.00,14.88,17.93,21.30,14.41,45.95,1022.02,2061.02,2596.60,2541.51,2919.05,599.91,615.98,12.01,0000 0000 0000 0000 000000
2018-03-13 01:13:35,0.31,2.38,0.00,14.90,17.94,21.30,14.38,46.06,1022.05,2061.02,2591.93,2537.93,2915.01,600.02,616.04,12.06,0000 0000 0000 0000 000000
2018-03-13 01:18:36,0.30,2.39,0.00,14.92,17.95,21.29,14.45,46.02,1022.06,2061.01,2587.31,2534.41,2911.08,600.46,616.50,12.11,0000 0000 0000 0000 000000
2018-03-13 01:23:37,0.30,2.41,0.00,14.95,17.97,21.33,14.43,46.03,1022.04,2061.00,2582.73,2530.92,2907.21,600.13,616.01,12.16,0000 0000 0000 0000 000000
2018-03-13 01:28:38,0.36,2.42,0.00,14.98,17.98,21.33,14.42,45.98,1022.04,2061.00,2577.69,2527.07,2903.03,599.93,615.89,12.21,0000 0000 0000 0000 000000
2018-03-13 01:33:39,0.44,2.44,0.00,15.02,17.99,21.33,14.37,45.95,1022.01,2061.00,2571.26,2522.26,2897.74,599.93,615.77,12.26,0000 0000 0000 0000 000000
2018-03-13 01:38:41,0.46,2.47,0.00,15.04,18.02,21.34,14.38,45.88,1022.00,2061.00,2564.36,2517.08,2892.00,599.77,615.50,12.31,0000 0000 0000 0000 000000
2018-03-13 01:43:42,0.49,2.49,0.00,15.06,18.03,21.37,14.38,45.98,1022.01,2060.98,2557.25,2511.66,2885.91,599.82,615.46,12.36,0000 0000 0000 0000 000000
2018-03-13 01:48:43,0.45,2.52,0.00,15.09,18.05,21.36,14.41,45.98,1022.01,2060.98,2550.31,2506.45,2880.23,600.16,615.69,12.41,0000 0000 0000 0000 000000
2018-03-13 01:53:45,0.38,2.54,0.00,15.12,18.07,21.36,14.34,45.92,1022.04,2060.99,2544.31,2501.99,2875.45,599.81,615.46,12.46,0000 0000 0000 0000 000000
2018-03-13 01:58:46,0.30,2.55,0.00,15.14,18.09,21.38,14.27,45.93,1022.06,2060.97,2539.65,2498.47,2871.43,599.72,615.29,12.51,0000 0000 0000 0000 000000
2018-03-13 02:03:47,0.30,2.57,0.00,15.16,18.11,21.42,14.36,45.90,1022.11,2060.88,2535.01,2495.13,2867.59,599.74,615.28,12.56,0000 0000 0000 0000 000000
2018-03-13 02:08:48,0.32,2.58,0.00,15.18,18.13,21.43,14.37,45.96,1022.20,2060.75,2530.14,2491.66,2863.61,600.24,615.77,12.61,0000 0000 0000 0000 000000
2018-03-13 02:13:49,0.26,2.60,0.00,15.21,18.15,21.45,14.40,45.91,1022.26,2060.35,2525.31,2488.09,2859.64,600.21,615.67,12.66,0000 0000 0000 0000 000000
2018-03-13 02:18:51,0.29,2.61,0.00,15.24,18.17,21.49,14.35,45.92,1022.30,2060.09,2520.54,2484.67,2855.87,599.90,615.33,12.71,0000 0000 0000 0000 000000
2018-03-13 02:23:52,0.27,2.63,0.00,15.27,18.19,21.48,14.28,46.04,1022.33,2060.06,2516.36,2481.69,2852.54,599.67,615.12,12.76,0000 0000 0000 0000 000000
2018-03-13 02:28:54,0.26,2.64,0.00,15.29,18.21,21.50,14.32,45.88,1022.40,2060.01,2512.31,2478.81,2849.33,599.70,615.25,12.81,0000 0000 0000 0000 000000
2018-03-13 02:33:55,0.24,2.65,0.00,15.32,18.23,21.53,14.33,45.88,1022.37,2060.01,2508.62,2476.16,2846.29,599.66,615.02,12.86,0000 0000 0000 0000 000000
2018-03-13 02:38:57,0.25,2.67,0.00,15.35,18.25,21.56,14.37,45.88,1022.38,2060.00,2504.97,2473.45,2843.30,600.12,615.43,12.91,0000 0000 0000 0000 000000
2018-03-13 02:43:58,0.23,2.68,0.00,15.39,18.27,21.58,14.30,46.00,1022.36,2060.00,2501.44,2470.93,2840.46,599.62,614.85,12.96,0000 0000 0000 0000 000000
2018-03-13 02:48:59,0.17,2.69,0.00,15.42,18.29,21.60,14.31,46.00,1022.41,2060.00,2498.66,2468.92,2838.25,599.65,614.82,13.01,0000 0000 0000 0000 000000
2018-03-13 02:54:01,0.14,2.70,0.00,15.45,18.32,21.61,14.39,46.15,1022.44,2060.00,2496.46,2467.40,2836.52,600.19,615.31,13.06,0000 0000 0000 0000 000000
2018-03-13 02:59:02,0.12,2.70,0.00,15.48,18.34,21.64,14.34,46.19,1022.46,2060.00,2494.72,2466.03,2834.99,599.96,615.03,13.11,0000 0000 0000 0000 000000
2018-03-13 03:04:03,0.13,2.71,0.00,15.52,18.38,21.65,14.44,46.23,1022.44,2059.98,2492.93,2464.65,2833.41,600.44,615.31,13.16,0000 0000 0000 0000 000000
2018-03-13 03:09:04,0.12,2.72,0.00,15.55,18.40,21.67,14.38,46.15,1022.48,2059.98,2491.08,2463.29,2831.68,600.23,615.18,13.21,0000 0000 0000 0000 000000
2018-03-13 03:14:05,0.10,2.72,0.00,15.59,18.43,21.70,14.36,46.18,1022.48,2059.85,2489.33,2461.92,2830.26,599.52,614.39,13.26,0000 0000 0000 0000 000000
2018-03-13 03:19:06,0.10,2.73,0.00,15.63,18.47,21.71,14.36,46.25,1022.48,2059.36,2487.32,2460.42,2828.47,599.94,614.70,13.31,0000 0000 0000 0000 000000
2018-03-13 03:24:08,0.13,2.73,0.00,15.66,18.50,21.75,14.25,46.21,1022.47,2059.12,2485.18,2458.75,2826.59,599.55,614.32,13.36,0000 0000 0000 0000 000000
2018-03-13 03:29:09,0.11,2.74,0.00,15.71,18.54,21.76,14.30,46.15,1022.48,2059.02,2483.39,2457.48,2824.98,599.72,614.33,13.41,0000 0000 0000 0000 000000
2018-03-13 03:34:10,0.11,2.75,0.00,15.74,18.57,21.78,14.41,46.21,1022.48,2059.01,2481.65,2456.25,2823.55,599.77,614.30,13.46,0000 0000 0000 0000 000000
2018-03-13 03:39:12,0.10,2.75,0.00,15.78,18.60,21.84,14.30,46.08,1022.47,2059.00,2480.13,2455.04,2822.29,599.61,614.05,13.52,0000 0000 0000 0000 000000
2018-03-13 03:44:13,0.14,2.76,0.00,15.80,18.63,21.85,14.28,46.07,1022.47,2059.00,2478.37,2453.72,2820.68,599.96,614.27,13.57,0000 0000 0000 0000 000000
2018-03-13 03:49:14,0.15,2.76,0.00,15.84,18.66,21.87,14.38,46.19,1022.48,2058.99,2476.13,2452.12,2818.76,600.16,614.45,13.62,0000 0000 0000 0000 000000
2018-03-13 03:54:16,0.11,2.77,0.00,15.88,18.69,21.92,14.41,46.16,1022.48,2058.82,2473.93,2450.52,2816.91,600.21,614.34,13.67,0000 0000 0000 0000 000000
2018-03-13 03:59:17,0.06,2.78,0.00,15.92,18.72,21.94,14.27,46.07,1022.48,2058.33,2472.15,2449.21,2815.49,600.17,614.32,13.72,0000 0000 0000 0000 000000
2018-03-13 04:04:18,0.13,2.78,0.00,15.98,18.75,21.97,14.28,46.09,1022.48,2058.07,2470.24,2447.74,2813.84,599.61,613.70,13.77,0000 0000 0000 0000 000000
2018-03-13 04:09:20,0.13,2.79,0.00,16.02,18.78,22.00,14.32,46.08,1022.47,2058.02,2468.17,2446.16,2812.03,600.15,614.34,13.82,0000 0000 0000 0000 000000
2018-03-13 04:14:21,0.15,2.80,0.00,16.05,18.81,22.03,14.35,46.02,1022.48,2058.00,2465.97,2444.58,2810.13,600.34,614.21,13.87,0000 0000 0000 0000 000000
2018-03-13 04:19:22,0.14,2.80,0.00,16.09,18.84,22.07,14.38,46.02,1022.48,2057.99,2463.91,2443.02,2808.35,600.19,613.98,13.92,0000 0000 0000 0000 000000
2018-03-13 04:24:23,0.14,2.81,0.00,16.12,18.88,22.09,14.25,46.09,1022.48,2057.98,2461.94,2441.60,2806.68,599.82,613.60,13.97,0000 0000 0000 0000 000000
2018-03-13 04:29:24,0.11,2.82,0.00,16.16,18.90,22.13,14.28,46.19,1022.48,2057.96,2460.13,2440.37,2805.20,599.60,613.31,14.02,0000 0000 0000 0000 000000
2018-03-13 04:34:25,0.10,2.82,0.00,16.19,18.93,22.17,14.36,46.17,1022.48,2057.82,2458.37,2439.02,2803.72,599.96,613.49,14.07,0000 0000 0000 0000 000000
2018-03-13 04:39:27,0.07,2.83,0.00,16.22,18.96,22.20,14.24,45.98,1022.48,2057.35,2456.66,2437.76,2802.30,599.61,613.16,14.12,0000 0000 0000 0000 000000
2018-03-13 04:44:28,0.09,2.83,0.00,16.25,18.99,22.23,14.32,45.95,1022.48,2057.06,2455.08,2436.61,2800.88,600.16,613.64,14.17,0000 0000 0000 0000 000000
2018-03-13 04:49:29,0.11,2.83,0.00,16.28,19.02,22.26,14.32,46.00,1022.48,2057.04,2453.56,2435.50,2799.68,600.24,613.67,14.22,0000 0000 0000 0000 000000
2018-03-13 04:54:31,0.09,2.84,0.00,16.30,19.05,22.31,14.32,46.05,1022.48,2057.00,2452.20,2434.52,2798.40,599.62,613.06,14.27,0000 0000 0000 0000 000000
2018-03-13 04:59:31,0.10,2.85,0.00,16.34,19.08,22.33,14.31,46.03,1022.51,2057.00,2450.71,2433.42,2797.11,600.43,613.63,14.32,0000 0000 0000 0000 000000
2018-03-13 05:04:33,0.09,2.85,0.00,16.38,19.11,22.35,14.26,45.98,1022.57,2056.99,2449.24,2432.33,2795.86,599.73,613.05,14.37,0000 0000 0000 0000 000000
2018-03-13 05:09:34,0.10,2.86,0.00,16.41,19.14,22.38,14.26,46.02,1022.61,2056.98,2447.80,2431.38,2794.74,599.87,613.05,14.42,0000 0000 0000 0000 000000
2018-03-13 05:14:35,0.08,2.86,0.00,16.44,19.17,22.42,14.35,46.08,1022.58,2056.95,2446.58,2430.50,2793.64,599.91,613.07,14.47,0000 0000 0000 0000 000000
2018-03-13 05:19:36,0.07,2.86,0.00,16.47,19.20,22.45,14.26,45.98,1022.63,2056.88,2445.28,2429.61,2792.60,599.88,612.95,14.52,0000 0000 0000 0000 000000
2018-03-13 05:24:38,0.05,2.87,0.00,16.49,19.23,22.48,14.25,45.96,1022.76,2056.45,2443.92,2428.65,2791.47,600.02,613.12,14.57,0000 0000 0000 0000 000000
2018-03-13 05:29:39,0.04,2.87,0.00,16.53,19.26,22.51,14.38,46.05,1022.84,2056.10,2442.74,2427.84,2790.40,600.08,613.17,14.62,0000 0000 0000 0000 000000
2018-03-13 05:34:40,0.07,2.87,0.00,16.55,19.29,22.55,14.30,45.98,1022.92,2056.05,2441.68,2427.04,2789.55,600.00,613.08,14.67,0000 0000 0000 0000 000000
2018-03-13 05:39:41,0.07,2.88,0.00,16.58,19.33,22.57,14.28,45.98,1022.95,2056.02,2440.68,2426.18,2788.70,600.07,613.17,14.72,0000 0000 0000 0000 000000
2018-03-13 05:44:42,0.06,2.88,0.00,16.62,19.36,22.59,14.26,46.00,1022.96,2056.00,2439.76,2425.61,2787.85,599.92,612.88,14.77,0000 0000 0000 0000 000000
2018-03-13 05:49:44,0.09,2.88,0.00,16.64,19.39,22.62,14.25,45.83,1022.96,2055.99,2438.61,2424.72,2786.71,600.01,612.85,14.82,0000 0000 0000 0000 000000
2018-03-13 05:54:45,0.09,2.89,0.00,16.67,19.42,22.65,14.29,45.86,1022.96,2055.98,2437.32,2423.68,2785.49,600.35,613.21,14.87,0000 0000 0000 0000 000000
2018-03-13 05:59:46,0.09,2.89,0.00,16.70,19.45,22.70,14.32,45.94,1022.96,2055.97,2435.83,2422.64,2784.32,600.00,612.79,14.92,0000 0000 0000 0000 000000
2018-03-13 06:04:48,0.05,2.90,0.00,16.72,19.48,22.73,14.28,45.92,1022.96,2055.74,2434.47,2421.60,2783.21,599.82,612.48,14.97,0000 0000 0000 0000 000000
2018-03-13 06:09:49,0.04,2.90,0.00,16.77,19.51,22.76,14.30,45.97,1022.96,2055.29,2433.18,2420.69,2782.06,599.93,612.68,15.02,0000 0000 0000 0000 000000
2018-03-13 06:14:51,0.06,2.90,0.00,16.78,19.54,22.78,14.28,45.98,1022.98,2055.08,2431.98,2419.86,2781.10,599.70,612.34,15.07,0000 0000 0000 0000 000000
2018-03-13 06:19:52,0.07,2.91,0.00,16.81,19.58,22.81,14.41,46.10,1023.00,2055.04,2430.91,2419.04,2780.19,600.35,612.98,15.12,0000 0000 0000 0000 000000
2018-03-13 06:24:53,0.08,2.91,0.00,16.82,19.61,22.85,14.28,46.02,1022.99,2055.01,2429.89,2418.24,2779.33,599.65,612.26,15.17,0000 0000 0000 0000 000000
2018-03-13 06:29:55,0.08,2.91,0.00,16.85,19.64,22.87,14.26,45.98,1023.02,2055.00,2428.80,2417.48,2778.42,600.10,612.66,15.22,0000 0000 0000 0000 000000
2018-03-13 06:34:55,0.06,2.92,0.00,16.87,19.68,22.90,14.28,46.05,1023.05,2055.00,2427.72,2416.77,2777.56,600.07,612.55,15.27,0000 0000 0000 0000 000000
2018-03-13 06:39:57,0.07,2.92,0.00,16.90,19.71,22.91,14.34,46.04,1023.05,2054.98,2426.59,2416.02,2776.73,600.26,612.71,15.32,0000 0000 0000 0000 000000
2018-03-13 06:44:58,0.06,2.92,0.00,16.92,19.75,22.96,14.30,46.04,1023.10,2054.96,2425.90,2415.25,2775.64,599.88,612.22,15.37,0000 0000 0000 0000 000000
2018-03-13 06:50:00,0.02,2.93,0.00,16.94,19.79,22.98,14.27,45.96,1023.14,2054.46,2424.87,2414.37,2774.61,600.01,612.41,15.42,0000 0000 0000 0000 000000
2018-03-13 06:55:01,0.04,2.93,0.00,16.96,19.82,23.00,14.36,45.98,1023.30,2054.06,2423.91,2413.68,2773.65,600.04,612.49,15.47,0000 0000 0000 0000 000000
2018-03-13 07:00:02,0.06,2.93,0.00,16.97,19.85,23.04,14.28,45.92,1023.42,2054.02,2422.79,2412.92,2772.74,600.02,612.50,15.52,0000 0000 0000 0000 000000
2018-03-13 07:05:03,0.07,2.94,0.00,17.00,19.88,23.06,14.31,45.88,1023.44,2054.00,2421.70,2412.07,2771.88,599.97,612.36,15.57,0000 0000 0000 0000 000000
2018-03-13 07:10:05,0.08,2.94,0.00,17.02,19.91,23.09,14.30,45.91,1023.43,2053.98,2420.59,2411.23,2770.86,600.01,612.42,15.62,0000 0000 0000 0000 000000
2018-03-13 07:15:06,0.09,2.94,0.00,17.04,19.94,23.12,14.27,45.90,1023.45,2053.98,2419.30,2410.24,2769.76,599.73,612.09,15.67,0000 0000 0000 0000 000000
2018-03-13 07:20:07,0.10,2.95,0.00,17.05,19.97,23.15,14.37,45.89,1023.45,2053.89,2417.76,2409.15,2768.44,600.11,612.42,15.72,0000 0000 0000 0000 000000
2018-03-13 07:25:08,0.09,2.95,0.00,17.08,19.99,23.17,14.33,45.84,1023.45,2053.66,2416.22,2407.93,2767.08,600.26,612.56,15.77,0000 0000 0000 0000 000000
2018-03-13 07:30:10,0.07,2.96,0.00,17.09,20.02,23.19,14.22,45.87,1023.45,2053.28,2414.62,2406.74,2765.72,599.38,611.67,15.82,0000 0000 0000 0000 000000
2018-03-13 07:35:11,0.05,2.96,0.00,17.11,20.04,23.24,14.29,45.90,1023.45,2053.05,2413.24,2405.91,2764.68,599.70,611.91,15.87,0000 0000 0000 0000 000000
2018-03-13 07:40:12,0.07,2.97,0.00,17.12,20.06,23.25,14.22,45.92,1023.45,2053.01,2412.01,2405.09,2763.78,599.92,612.21,15.92,0000 0000 0000 0000 000000
2018-03-13 07:45:13,0.08,2.97,0.00,17.12,20.08,23.28,14.17,45.88,1023.45,2053.00,2410.86,2404.31,2762.99,599.71,611.83,15.97,0000 0000 0000 0000 000000
2018-03-13 07:50:14,0.08,2.97,0.00,17.12,20.10,23.32,14.25,45.85,1023.45,2053.00,2409.65,2403.67,2762.06,599.60,611.95,16.03,0000 0000 0000 0000 000000
2018-03-13 07:55:15,0.07,2.98,0.00,17.13,20.12,23.34,14.27,45.88,1023.45,2053.00,2408.41,2402.86,2761.07,599.86,612.04,16.08,0000 0000 0000 0000 000000
2018-03-13 08:00:17,0.08,2.98,0.00,17.14,20.14,23.37,14.27,45.92,1023.45,2052.99,2407.10,2402.01,2760.15,599.84,612.00,16.13,0000 0000 0000 0000 000000
2018-03-13 08:05:18,0.09,2.99,0.00,17.14,20.15,23.38,14.25,45.84,1023.45,2052.98,2405.76,2401.09,2759.09,599.94,612.16,16.18,0000 0000 0000 0000 000000
2018-03-13 08:10:19,0.09,2.99,0.00,17.14,20.17,23.40,14.28,45.79,1023.46,2052.96,2404.47,2400.16,2758.06,599.91,612.19,16.23,0000 0000 0000 0000 000000
2018-03-13 08:15:20,0.11,3.00,0.00,17.15,20.18,23.41,14.27,45.82,1023.47,2052.87,2402.95,2399.02,2756.62,599.89,612.03,16.28,0000 0000 0000 0000 000000
2018-03-13 08:20:22,0.15,3.00,0.00,17.14,20.19,23.43,14.20,45.79,1023.50,2052.77,2400.84,2397.45,2754.80,599.96,612.11,16.33,0000 0000 0000 0000 000000
2018-03-13 08:25:23,0.13,3.01,0.00,17.14,20.19,23.46,14.29,45.82,1023.58,2052.43,2398.47,2395.73,2752.91,600.00,612.26,16.38,0000 0000 0000 0000 000000
2018-03-13 08:30:24,0.14,3.02,0.00,17.16,20.22,23.46,14.32,45.85,1023.71,2052.28,2396.18,2394.03,2751.11,599.82,611.94,16.43,0000 0000 0000 0000 000000
2018-03-13 08:35:26,0.18,3.03,0.00,17.16,20.22,23.49,14.34,45.76,1023.63,2052.11,2393.49,2392.08,2749.04,600.02,612.26,16.48,0000 0000 0000 0000 000000
2018-03-13 08:40:27,0.13,3.03,0.00,17.17,20.22,23.50,14.32,45.91,1023.73,2052.05,2391.36,2390.39,2747.23,599.68,611.91,16.53,0000 0000 0000 0000 000000
2018-03-13 08:45:28,0.07,3.04,0.00,17.17,20.24,23.51,14.27,45.81,1023.69,2052.05,2390.28,2389.75,2746.29,600.10,612.42,16.58,0000 0000 0000 0000 000000
2018-03-13 08:50:29,0.04,3.04,0.00,17.16,20.24,23.54,14.24,45.82,1023.71,2052.03,2389.78,2389.03,2745.60,599.67,612.06,16.63,0000 0000 0000 0000 000000
2018-03-13 08:55:30,0.08,3.04,0.00,17.15,20.24,23.55,14.37,45.77,1023.75,2052.01,2388.75,2388.53,2744.74,600.22,612.54,16.68,0000 0000 0000 0000 000000
2018-03-13 09:00:32,0.10,3.05,0.00,17.14,20.24,23.57,14.31,45.80,1023.77,2052.00,2387.37,2387.37,2743.47,600.03,612.35,16.73,0000 0000 0000 0000 000000
2018-03-13 09:05:33,0.09,3.05,0.00,17.16,20.24,23.57,14.38,45.71,1023.86,2052.00,2385.96,2386.39,2742.34,600.20,612.76,16.78,0000 0000 0000 0000 000000
2018-03-13 09:10:35,0.08,3.06,0.00,17.14,20.24,23.59,14.28,45.63,1023.91,2052.00,2384.79,2385.66,2741.46,599.92,612.34,16.83,0000 0000 0000 0000 000000
2018-03-13 09:15:36,0.05,3.06,0.00,17.14,20.24,23.60,14.33,45.73,1023.94,2052.00,2383.81,2384.99,2740.74,600.38,612.89,16.88,0000 0000 0000 0000 000000
2018-03-13 09:20:37,0.06,3.07,0.00,17.12,20.24,23.62,14.33,45.75,1023.94,2052.00,2383.00,2384.20,2740.02,599.95,612.53,16.93,0000 0000 0000 0000 000000
2018-03-13 09:25:38,0.04,3.07,0.00,17.11,20.24,23.62,14.29,45.71,1023.94,2052.00,2382.13,2383.99,2739.42,599.92,612.33,16.98,0000 0000 0000 0000 000000
2018-03-13 09:30:40,0.01,3.07,0.00,17.11,20.23,23.62,14.29,45.73,1023.94,2052.00,2381.98,2383.88,2739.02,599.78,612.29,17.03,0000 0000 0000 0000 000000
2018-03-13 09:35:41,0.06,3.07,0.00,17.09,20.22,23.60,14.33,45.72,1023.94,2052.00,2381.35,2383.16,2738.80,600.11,612.65,17.08,0000 0000 0000 0000 000000
2018-03-13 09:40:43,0.05,3.07,0.00,17.09,20.22,23.62,14.31,45.66,1023.95,2052.00,2380.64,2382.81,2738.04,600.32,612.77,17.13,0000 0000 0000 0000 000000
2018-03-13 09:45:44,0.03,3.08,0.00,17.08,20.22,23.63,14.32,45.67,1023.96,2052.00,2380.01,2382.12,2737.89,600.15,612.71,17.18,0000 0000 0000 0000 000000
2018-03-13 09:50:46,0.04,3.08,0.00,17.07,20.22,23.61,14.30,45.74,1023.97,2052.00,2379.55,2381.99,2737.21,599.99,612.61,17.23,0000 0000 0000 0000 000000
2018-03-13 09:55:47,0.02,3.08,0.00,17.05,20.22,23.62,14.30,45.58,1024.00,2052.00,2378.91,2381.80,2736.99,600.38,613.16,17.28,0000 0000 0000 0000 000000
2018-03-13 10:00:48,0.07,3.08,0.00,17.04,20.22,23.64,14.32,45.60,1024.06,2052.00,2377.95,2380.99,2736.12,600.15,612.82,17.33,0000 0000 0000 0000 000000
2018-03-13 10:05:50,0.12,3.09,0.00,17.03,20.20,23.61,14.40,45.66,1024.11,2052.00,2376.54,2379.98,2734.85,600.15,612.89,17.38,0000 0000 0000 0000 000000
2018-03-13 10:10:51,0.09,3.09,0.00,17.01,20.19,23.62,14.36,45.71,1024.08,2052.00,2375.14,2379.02,2733.41,600.13,612.97,17.43,0000 0000 0000 0000 000000
2018-03-13 10:15:53,0.05,3.10,0.00,16.99,20.19,23.62,14.35,45.73,1024.07,2052.00,2374.46,2378.41,2733.00,600.07,612.91,17.48,0000 0000 0000 0000 000000
2018-03-13 10:20:54,0.02,3.10,0.00,16.98,20.19,23.61,14.38,45.66,1024.21,2052.00,2373.95,2378.01,2732.72,599.86,612.81,17.53,0000 0000 0000 0000 000000
2018-03-13 10:25:56,0.04,3.10,0.00,16.97,20.19,23.60,14.33,45.70,1024.14,2052.00,2373.14,2377.96,2732.05,600.09,613.09,17.58,0000 0000 0000 0000 000000
2018-03-13 10:30:57,0.05,3.10,0.00,16.95,20.17,23.57,14.36,45.73,1024.01,2052.01,2372.75,2377.26,2731.86,600.35,613.22,17.63,0000 0000 0000 0000 000000
2018-03-13 10:35:58,0.03,3.10,0.00,16.92,20.17,23.56,14.37,45.73,1023.97,2052.01,2372.05,2377.00,2731.13,600.42,613.34,17.68,0000 0000 0000 0000 000000
2018-03-13 10:40:59,0.00,3.11,0.00,16.91,20.17,23.62,14.31,45.67,1023.95,2052.02,2371.95,2376.98,2731.01,599.77,612.65,17.73,0000 0000 0000 0000 000000
2018-03-13 10:46:01,0.02,3.11,0.00,16.89,20.15,23.58,14.30,45.66,1023.95,2052.05,2371.28,2376.94,2730.99,600.09,613.15,17.78,0000 0000 0000 0000 000000
2018-03-13 10:51:02,0.03,3.11,0.00,16.87,20.14,23.55,14.33,45.63,1023.95,2052.04,2371.01,2376.39,2730.80,599.83,612.86,17.83,0000 0000 0000 0000 000000
2018-03-13 10:56:03,0.04,3.11,0.00,16.86,20.13,23.55,14.37,45.70,1023.94,2052.04,2370.73,2376.02,2730.07,600.22,613.25,17.88,0000 0000 0000 0000 000000
2018-03-13 11:01:04,0.04,3.11,0.00,16.84,20.12,23.56,14.35,45.66,1023.94,2052.06,2370.01,2375.75,2729.66,599.86,613.10,17.93,0000 0000 0000 0000 000000
2018-03-13 11:06:05,0.07,3.12,0.00,16.82,20.11,23.50,14.35,45.67,1023.94,2052.15,2369.14,2375.01,2728.89,600.35,613.49,17.98,0000 0000 0000 0000 000000
2018-03-13 11:11:07,0.09,3.12,0.00,16.78,20.09,23.52,14.36,45.74,1023.94,2052.19,2367.96,2374.15,2727.97,600.04,613.31,18.03,0000 0000 0000 0000 000000
2018-03-13 11:16:08,0.13,3.12,0.00,16.76,20.08,23.55,14.33,45.76,1023.94,2052.43,2366.94,2373.23,2726.93,599.97,613.18,18.08,0000 0000 0000 0000 000000
2018-03-13 11:21:09,0.12,3.13,0.00,16.74,20.07,23.51,14.36,45.67,1023.94,2052.86,2365.93,2372.38,2725.82,599.97,613.14,18.13,0000 0000 0000 0000 000000
2018-03-13 11:26:11,0.08,3.14,0.00,16.72,20.05,23.51,14.38,45.77,1023.94,2052.82,2364.78,2371.53,2724.89,600.07,613.41,18.18,0000 0000 0000 0000 000000
2018-03-13 11:31:12,0.08,3.14,0.00,16.69,20.04,23.46,14.42,45.68,1023.94,2052.92,2363.68,2370.80,2724.02,600.39,613.78,18.23,0000 0000 0000 0000 000000
2018-03-13 11:36:13,0.09,3.15,0.00,16.67,20.02,23.43,14.37,45.73,1023.94,2052.97,2362.46,2369.91,2723.13,600.25,613.82,18.28,0000 0000 0000 0000 000000
2018-03-13 11:41:14,0.08,3.15,0.00,16.64,20.00,23.48,14.32,45.75,1023.94,2052.99,2361.46,2369.06,2722.23,599.78,613.34,18.33,0000 0000 0000 0000 000000
2018-03-13 11:46:15,0.06,3.15,0.00,16.60,19.99,23.43,14.37,45.69,1023.94,2052.99,2360.78,2368.53,2721.39,600.36,613.93,18.38,0000 0000 0000 0000 000000
2018-03-13 11:51:16,0.02,3.16,0.00,16.58,19.97,23.42,14.40,45.79,1023.94,2052.98,2360.01,2368.00,2720.99,600.00,613.71,18.43,0000 0000 0000 0000 000000
2018-03-13 11:56:17,0.07,3.16,0.00,16.55,19.95,23.38,14.32,45.80,1023.93,2052.99,2359.17,2367.60,2720.35,599.83,613.61,18.48,0000 0000 0000 0000 000000
2018-03-13 12:01:19,0.03,3.16,0.00,16.53,19.93,23.40,14.37,45.67,1023.94,2052.99,2358.74,2367.03,2719.97,599.82,613.70,18.53,0000 0000 0000 0000 000000
2018-03-13 12:06:20,0.03,3.16,0.00,16.49,19.91,23.36,14.41,45.77,1023.94,2052.99,2358.01,2366.97,2719.28,600.27,614.12,18.58,0000 0000 0000 0000 000000
2018-03-13 12:11:21,0.05,3.16,0.00,16.47,19.89,23.32,14.35,45.77,1023.94,2053.00,2357.29,2366.42,2718.99,599.97,613.83,18.63,0000 0000 0000 0000 000000
2018-03-13 12:16:22,0.03,3.17,0.00,16.45,19.87,23.33,14.32,45.77,1023.93,2053.02,2356.87,2366.01,2718.48,600.18,613.99,18.68,0000 0000 0000 0000 000000
2018-03-13 12:21:23,0.03,3.17,0.00,16.43,19.84,23.26,14.37,45.77,1023.92,2053.04,2356.07,2365.94,2718.00,600.06,613.91,18.73,0000 0000 0000 0000 000000
2018-03-13 12:26:25,0.07,3.17,0.00,16.40,19.83,23.28,14.35,45.73,1023.87,2053.16,2355.69,2365.26,2717.79,599.93,613.93,18.79,0000 0000 0000 0000 000000
2018-03-13 12:31:26,0.04,3.17,0.00,16.38,19.81,23.19,14.37,45.74,1023.90,2053.35,2355.04,2365.01,2717.06,600.10,614.14,18.84,0000 0000 0000 0000 000000
2018-03-13 12:36:28,0.05,3.18,0.00,16.34,19.78,23.19,14.32,45.68,1023.81,2053.67,2354.86,2364.97,2716.93,599.67,613.66,18.89,0000 0000 0000 0000 000000
2018-03-13 12:41:29,0.07,3.18,0.00,16.31,19.76,23.17,14.36,45.86,1023.72,2053.84,2354.16,2364.65,2716.27,600.11,614.09,18.94,0000 0000 0000 0000 000000
2018-03-13 12:46:31,0.03,3.18,0.00,16.28,19.74,23.12,14.38,45.80,1023.67,2053.93,2353.88,2364.07,2716.04,599.76,613.86,18.99,0000 0000 0000 0000 000000
2018-03-13 12:51:32,0.02,3.18,0.00,16.25,19.71,23.08,14.36,45.80,1023.54,2053.98,2353.09,2364.00,2716.00,600.12,614.36,19.04,0000 0000 0000 0000 000000
2018-03-13 12:56:33,0.03,3.18,0.00,16.23,19.69,23.10,14.41,45.82,1023.61,2053.99,2352.67,2363.92,2715.75,600.23,614.27,19.09,0000 0000 0000 0000 000000